Tracking 35331 objects as of 14-Sep-2026
HD Live streaming from Space Station
objects crossing your sky now

COSMOS 2539

Track COSMOS 2539 now!


NORAD ID: 44457
Int'l Code: 2019-048A
Launch date: August 5, 2019
Source: Commonwealth of Independent States (former USSR) (CIS)
Launch site: TYURATAM MISSILE AND SPACE COMPLEX (TTMTR)
Your satellite tracking list
Your tracking list is empty




NASA's NSSDC Master Catalog

Two Line Element Set (TLE):
1 44457U 19048A   26256.29454414  .00000070  00000-0  00000-0 0  9997
2 44457   0.0163 126.2102 0000595 126.3630 217.7679  1.00275544 26117
Source of the keplerian elements: AFSPC